Regional Weather Roundup
Issued by NWS Upton, NY

Current Version | Previous Version | Text Only | Print | Product List | Glossary On
Versions: 1 2 3 4 5 6 7 8 9 10 11 12 13 14 15 16 17 18 19 20 21 22 23 24 25 26 27 28 29 30 31 32 33 34 35 36 37 38 39 40 41 42 43 44 45 46 47 48 49 50
000
ASUS41 KOKX 140205
RWROKX

REGIONAL WEATHER ROUNDUP
NATIONAL WEATHER SERVICE NEW YORK NY
1000 PM EDT SAT SEP 13 2014

NOTE: "FAIR" INDICATES FEW OR NO CLOUDS BELOW 12,000 FEET WITH NO
SIGNIFICANT WEATHER AND/OR OBSTRUCTIONS TO VISIBILITY.

NYZ071-072-176-178-NJZ106-104-140300-
NEW YORK CITY METRO AREA


CITY           SKY/WX    TMP DP  RH WIND       PRES   REMARKS
CENTRAL PARK   CLOUDY    62  58  86 CALM      30.18R
LAGUARDIA APRT CLOUDY    63  60  90 N7        30.14S
KENNEDY INTL   CLOUDY    64  61  90 N6        30.15S
NEWARK/LIBERTY CLOUDY    63  61  93 N6        30.15S
BRNX BOT. GARD   N/A     61  59  94 W2        30.15F
TETERBORO      CLOUDY    63  59  87 N6        30.14R
$$

NYZ177-179-078>081-140300-
LONG ISLAND NEW YORK

CITY           SKY/WX    TMP DP  RH WIND       PRES   REMARKS
FARMINGDALE    CLOUDY    63  60  90 N9        30.14S
ISLIP          CLOUDY    62  60  93 NW7       30.12S
SHIRLEY        CLOUDY    61  59  93 N5        30.13R
WESTHAMPTON    CLOUDY    62  59  90 N5        30.13S
MONTAUK POINT    N/A     62  60  93 N9        30.13R
$$

NYZ052-065-067-140300-
HUDSON VALLEY

CITY           SKY/WX    TMP DP  RH WIND       PRES   REMARKS
WHITE PLAINS   MOCLDY    60  59  96 NW6       30.14S
NEWBURGH       CLOUDY    57  57 100 W8        30.19R
MONTGOMERY     CLEAR     55  53  93 CALM      30.18R
POUGHKEEPSIE   MOCLDY    58  56  93 CALM      30.17R
ALBANY         PTCLDY    54  49  83 W10       30.19S
$$

NJZ001-105-106-008-010-013-015-019>022-104-140300-
NEW JERSEY

CITY           SKY/WX    TMP DP  RH WIND       PRES   REMARKS
NEWARK/LIBERTY CLOUDY    63  61  93 N6        30.15S
TETERBORO      CLOUDY    63  59  87 N6        30.14R
CALDWELL       MOCLDY    60  58  92 CALM      30.17R
MORRISTOWN     PTCLDY    63  61  94 CALM      30.17S
SOMERVILLE     PTCLDY    60  57  89 NW3       30.15R
LINDEN         CLOUDY    67  64  91 N3        30.17R
SUSSEX         FOG       56  54  93 CALM      30.19R VSB 1/4
ANDOVER          N/A     55  55 100 CALM      30.19R
TRENTON        CLEAR     60  57  89 NW3       30.17R
MILLVILLE      PTCLDY    61  58  90 NW10      30.16R
ATLANTIC CITY  MOCLDY    63  62  97 NW13      30.13R
WRIGHTSTOWN    PTCLDY    62  61  96 NW10      30.13R
TOMS RIVER     CLOUDY    64  63  94 N5        30.14R
BELMAR         CLOUDY    64  59  82 N7        30.14R
$$

PAZ047>061-062-071-140300-
EASTERN PENNSYLVANIA

CITY           SKY/WX    TMP DP  RH WIND       PRES   REMARKS
PHILADELPHIA   PTCLDY    62  56  80 NW8       30.18R
ALLENTOWN      CLEAR     56  53  90 NW5       30.19R
SCRANTON       CLEAR     55  49  80 NE5       30.21R
$$

CTZ002-004>006-009-010-012-RIZ004-006-007-MAZ004-011-015-140300-
SOUTHERN NEW ENGLAND
 IN CT

CITY           SKY/WX    TMP DP  RH WIND       PRES   REMARKS
BRADLEY INTL   MOCLDY    58  55  90 CALM      30.14S
HARTFORD       CLOUDY    59  57  93 SW7       30.16R
DANBURY        MOCLDY    59  57  93 N3        30.17S
WTRBRY/OXFORD  MOCLDY    55  52  88 N5        30.18F
BRIDGEPORT     CLOUDY    60  58  92 N5        30.15S
MERIDEN        CLOUDY    58  56  93 NW5       30.16R
NEW HAVEN      CLOUDY    61  57  87 NW7       30.15R
CHESTER        CLOUDY    57  57 100 NW6       30.14R
GROTON         CLOUDY    58  57  97 N5        30.12R
WILLIMANTIC    CLOUDY    59  56  89 CALM      30.14S

 IN RI

CITY           SKY/WX    TMP DP  RH WIND       PRES   REMARKS
PROVIDENCE     CLOUDY    61  58  90 N3        30.12R
BLOCK ISLAND   CLOUDY    61  57  88 NE7       30.11R
WESTERLY       LGT RAIN  59  57  93 NW3       30.12S

 IN MA

CITY           SKY/WX    TMP DP  RH WIND       PRES   REMARKS
BOSTON         CLOUDY    61  59  93 CALM      30.12R
WORCESTER      CLOUDY    56  55  97 SW3       30.14S
WESTFIELD      MOCLDY    57  55  93 CALM      30.15S FOG
PROVINCETOWN   CLOUDY    63  59  88 E5        30.09F
NANTUCKET      CLOUDY    63  61  93 NE12      30.07S
$$

ANZ330-335-338-340-345-350-353-355-140300-
COASTAL MARINE OBSERVATIONS


STATION/POSITION TIME  SKY/WX   TEMP    WIND        PRES    VSBY  WAVE
                                AIR SEA DIR/SP/G                  HT/PER
                 (UTC)          (F)     (DEG/KT/KT) (MB)    (MI)  (FT/S)
NY HARB ENTRANCE NOT AVBL
4S FIRE IS       NOT AVBL
23SW MTP         0200                                 N/A           3/ 5
HUDSON CANYON    0200            72 73  110/ 10/ 12 1017.2          4/ 6
EXECUTION ROCKS  0200            64 72  330/ 10/ 14   N/A
WESTERN LI SOUND 0200            63      10/  6/ 10   N/A           1/ 4
CENTRAL LI SOUND 0100            61 72   30/  8/ 12   N/A           2/ 4
EASTERN LI SOUND 0100            61 68   20/  8/ 12   N/A
ROBBINS REEF     0200            63     350/  7/  9 1019.7
$$


>>>>>>>>>>>>>>>>>>>>>>>>>>>> KEY <<<<<<<<<<<<<<<<<<<<<<<<<<<
>                                                          <
>     SKY/WX - SKY CONDITION/PRESENT WEATHER               <
>     TMP    - TEMPERATURE IN FAHRENHEIT                   <
>     DP     - DEWPOINT IN FAHRENHEIT                      <
>     RH     - RELATIVE HUMIDITY IN PERCENT                <
>     WIND   - DIRECTION AND SPEED IN MPH                  <
>     PRES   - MEAN SEA LEVEL PRESSURE IN INCHES OF HG     <
>     WCI    - WIND CHILL INDEX                            <
>     VSB    - VISIBILITY IN MILES                         <
>     HX     - HEAT INDEX                                  <
>     TC     - TEMPERATURE IN CELSIUS                      <
>     VRB    - VARIABLE WIND DIRECTION                     <
>                                                          <
>>>>>>>>>>>>>>>>>>>>>>>>>>>> KEY <<<<<<<<<<<<<<<<<<<<<<<<<<<




USA.gov is the U.S. government's official web portal to all federal, state and local government web resources and services.